Theta_e
300 300 301 302 302 302 302 302 302 303 303 304 306 307 308 308 309 311 313 313 312 315 315 316 317 316 314 312 314 314 312 314 317 322 343 345 340 339 340 349 348 347 345 338 346
300 301 301 302 302 302 302 302 302 303 303 303 305 306 307 308 311 316 314 314 313 316 317 316 314 311 311 313 313 312 312 316 317 319 340 341 338 341 352 350 348 345 341 341 345
299 300 301 301 302 302 302 302 303 303 303 303 304 306 308 309 317 320 324 322 314 317 317 318 315 312 312 312 312 312 312 313 316 321 337 339 346 343 352 350 346 344 348 345 345
298 299 300 301 302 302 302 302 302 303 303 304 304 307 308 314 316 325 322 322 316 317 318 314 312 312 313 314 312 314 312 313 314 335 345 346 344 344 347 349 342 344 346 345 345
298 299 300 301 302 302 302 302 303 304 304 305 306 308 313 320 320 316 319 320 318 317 315 310 311 312 314 313 314 314 313 313 314 331 345 345 344 346 343 346 344 343 345 345 343
298 299 299 300 301 302 303 303 304 305 305 306 308 308 316 317 315 322 322 318 316 314 312 310 311 311 315 314 313 315 315 314 314 340 342 341 340 338 339 345 346 344 344 344 343
298 299 299 300 301 302 303 304 305 306 306 308 308 311 319 316 318 323 319 315 314 312 314 314 313 317 316 316 316 316 318 315 315 343 344 338 342 346 343 343 347 344 343 344 340
299 299 299 300 301 303 304 306 307 307 309 308 308 317 315 313 315 316 318 321 315 316 316 317 317 316 315 317 317 319 316 315 316 332 347 342 356 342 341 345 346 344 342 340 338
299 299 300 301 301 303 304 307 310 310 309 308 313 320 313 319 322 320 319 322 322 319 317 318 318 318 317 316 315 314 318 318 318 317 338 331 355 347 343 347 345 343 340 338 335
298 298 300 301 301 303 307 313 317 312 317 315 316 315 315 320 322 322 321 322 319 318 317 317 313 316 313 314 316 318 318 318 317 319 317 336 352 349 345 346 346 342 338 336 333
297 298 300 302 302 304 312 318 310 314 319 318 318 316 317 319 321 321 321 322 319 316 316 316 315 315 315 315 317 318 318 319 318 318 319 329 352 350 346 346 346 340 335 333 329
297 298 300 302 303 308 315 315 318 314 311 317 317 316 317 318 321 322 320 320 319 317 317 316 315 316 316 316 317 317 317 317 319 325 322 345 353 349 347 346 345 339 335 330 325
297 298 299 302 305 316 308 312 316 315 314 317 315 317 319 319 320 322 318 319 320 319 319 317 318 319 319 317 318 317 317 318 323 332 332 345 350 351 346 343 344 339 335 329 325
298 299 299 302 308 307 312 315 315 315 316 320 320 318 317 318 320 321 320 320 319 319 318 318 320 320 320 320 319 317 318 319 321 333 332 334 339 349 344 340 346 342 333 329 325
298 299 302 304 308 309 314 315 314 316 316 321 320 319 316 318 320 319 322 321 320 320 320 320 321 321 321 321 321 320 319 319 323 332 332 331 329 331 341 343 344 342 333 329 325
299 300 304 308 309 312 315 315 315 318 317 322 318 318 317 317 319 319 320 321 320 320 319 319 320 321 320 321 319 320 321 317 320 327 330 330 331 334 344 347 341 342 335 328 325
300 302 308 308 310 313 317 312 314 316 317 319 317 316 316 318 318 319 319 320 320 322 321 321 322 321 322 320 319 320 315 317 320 322 328 327 328 327 340 342 341 334 336 328 326
301 306 311 314 318 318 317 312 316 318 317 317 315 315 320 318 319 319 320 320 319 321 320 321 323 322 322 320 319 318 316 318 320 325 326 326 329 333 339 341 332 332 332 329 327
303 310 316 319 321 319 309 311 314 317 316 316 316 315 315 316 321 324 324 320 321 320 322 321 323 322 322 322 318 319 320 318 322 325 325 327 336 332 337 337 334 335 333 330 328
306 311 315 321 321 320 310 313 313 314 316 319 319 318 319 317 322 323 326 326 324 323 319 321 322 322 321 323 323 319 319 323 320 326 328 333 337 333 333 336 334 338 334 332 329
309 309 321 323 324 319 318 314 317 320 324 327 327 325 320 321 320 322 325 324 328 328 326 321 319 322 322 324 323 320 322 321 320 323 325 331 333 326 328 329 334 335 335 332 329
304 305 318 318 316 315 319 322 320 320 323 325 324 326 327 327 321 322 323 324 327 330 329 326 318 321 321 323 324 320 320 321 324 325 327 327 329 326 325 327 333 335 335 333 329
302 306 316 314 318 310 310 312 318 316 320 324 325 325 325 327 324 323 325 327 330 331 335 332 326 323 323 325 327 329 324 324 324 325 331 330 329 324 325 323 334 335 336 333 331
305 311 306 306 306 308 308 311 312 313 315 325 327 326 325 326 326 330 329 327 326 330 336 331 327 322 326 323 327 330 329 329 325 326 329 328 330 327 323 322 336 336 336 334 327
303 305 304 305 304 304 307 311 312 312 314 321 324 327 325 325 326 329 327 326 325 331 330 333 334 333 333 325 328 328 329 329 330 328 329 328 327 325 324 324 336 336 335 332 326
305 303 301 301 302 304 305 305 310 310 312 311 317 320 326 323 324 324 323 325 325 326 328 332 333 334 333 328 326 330 329 329 328 328 328 328 329 324 324 322 328 336 334 330 326
303 305 300 303 303 303 304 306 308 308 310 312 311 312 317 317 313 314 321 320 322 325 327 334 336 337 335 335 333 325 329 329 328 327 327 329 327 325 326 325 321 331 333 329 326
Wind_Speed
19 17 17 17 17 17 17 18 18 18 18 18 18 18 18 18 20 18 10 19 7 5 10 13 10 11 3 2 4 3 3 4 5 6 7 16 7 4 8 14 11 6 11 17 33
20 19 19 18 18 18 19 19 19 19 19 19 18 17 17 16 19 17 24 23 15 9 5 3 5 8 4 3 1 5 4 6 8 7 12 16 8 12 9 16 8 20 9 27 32
22 21 20 20 20 20 20 20 20 21 20 20 18 15 13 12 6 8 9 5 15 16 12 9 7 2 2 2 3 3 6 8 9 4 21 13 9 4 17 12 23 22 16 20 24
23 22 22 22 22 22 22 21 22 22 22 20 17 12 8 3 4 3 5 1 12 14 10 4 1 2 2 3 3 2 8 6 11 12 13 21 9 6 6 9 18 16 20 19 18
24 24 23 24 24 24 25 24 25 23 23 19 14 7 1 0 10 13 8 4 13 15 13 6 5 5 4 3 3 6 8 7 12 13 18 19 7 4 3 10 15 17 18 18 15
26 26 26 28 27 26 27 27 26 25 22 15 10 2 3 4 9 9 12 9 9 17 10 8 8 7 5 4 4 5 6 10 4 15 18 15 9 8 5 9 16 15 16 16 16
27 28 29 31 29 29 28 30 28 23 16 10 5 4 2 15 4 3 6 7 12 16 6 20 8 2 2 10 5 4 5 9 9 15 8 17 2 7 17 9 15 14 14 14 15
29 30 31 33 31 30 31 31 26 15 8 4 4 5 7 11 11 19 11 19 13 14 16 15 12 6 6 5 8 5 2 1 4 12 16 9 7 16 18 18 16 16 13 14 11
30 32 32 32 33 31 34 30 17 2 2 4 6 3 9 14 7 16 17 16 19 15 19 16 6 3 6 4 6 6 4 3 7 7 9 1 6 13 13 14 16 15 15 15 13
33 34 34 33 33 33 30 17 5 3 3 3 2 2 7 4 6 13 12 21 5 4 7 1 5 2 4 5 5 5 3 4 6 6 7 7 8 21 15 20 18 16 16 17 15
35 36 35 33 32 29 20 3 5 3 2 6 6 6 9 6 12 8 15 8 4 4 5 4 2 6 10 7 8 5 5 8 7 8 8 9 13 23 17 17 15 15 14 12 13
36 38 36 34 32 13 7 3 6 7 10 16 19 19 28 4 5 10 13 6 5 5 2 3 6 13 7 7 6 6 8 13 9 13 8 15 15 20 19 19 19 18 15 18 14
38 40 36 34 18 4 16 9 24 25 4 9 8 7 8 12 11 14 9 7 6 4 5 7 11 9 10 9 8 10 7 10 9 3 7 11 5 11 9 1 6 10 10 10 17
39 40 35 34 3 17 9 22 23 18 4 7 4 6 8 6 5 11 17 10 3 10 6 7 15 13 9 8 8 8 9 9 8 5 4 6 8 7 8 5 11 17 20 21 22
42 39 35 13 13 6 13 22 21 3 3 5 2 5 6 9 3 5 14 3 10 8 5 9 6 5 6 13 13 14 10 7 5 5 3 1 5 4 9 9 10 18 20 18 18
43 38 28 5 9 6 18 20 4 5 4 5 6 10 5 4 4 3 4 3 6 7 5 13 6 5 9 12 6 9 4 5 4 4 2 5 5 3 7 17 9 14 14 17 16
44 32 14 6 4 10 15 5 5 3 6 5 11 16 9 5 7 4 4 5 7 4 6 6 13 5 6 8 7 3 6 3 4 3 5 4 4 6 14 10 16 18 15 20 18
41 21 7 7 5 8 8 5 2 4 6 7 12 12 4 14 7 7 4 8 5 4 4 6 9 4 5 7 8 8 9 6 7 4 5 4 6 4 8 1 7 9 10 18 16
37 14 3 1 2 2 5 4 5 3 5 9 12 6 3 15 7 7 2 4 6 11 10 5 13 11 9 5 7 6 3 8 6 1 2 2 1 3 6 7 7 10 16 19 18
19 12 6 5 6 4 5 4 4 3 8 10 5 4 12 11 8 8 4 4 6 3 6 10 9 17 17 2 8 8 6 2 3 6 5 2 2 4 5 9 13 15 19 19 17
6 4 2 6 7 5 3 5 4 9 7 4 4 5 5 7 5 4 4 9 1 8 6 4 2 18 3 5 8 4 2 4 4 5 6 3 5 7 11 10 17 19 19 21 20
7 3 4 6 4 1 1 5 6 10 6 5 4 3 3 6 5 4 4 4 8 1 5 3 4 9 15 9 7 6 6 7 6 5 2 5 5 4 10 12 14 17 19 21 23
3 3 8 3 2 4 6 5 4 6 6 4 3 4 3 3 6 9 9 14 23 13 7 6 3 5 9 6 1 3 5 4 5 4 6 7 5 3 3 7 8 19 18 20 18
2 4 4 5 3 3 5 5 7 7 7 1 4 4 4 4 2 4 11 7 13 4 8 4 1 5 10 11 6 4 4 5 5 4 5 5 5 5 7 9 11 15 20 22 19
3 1 1 4 3 5 2 3 7 10 7 11 4 4 1 5 7 5 3 7 12 10 7 7 2 6 18 15 9 9 6 8 4 6 6 5 7 7 7 7 15 17 18 18 19
3 3 4 3 4 6 5 6 9 11 4 7 4 5 3 1 3 14 4 3 6 5 5 4 5 10 18 14 16 9 11 9 7 5 4 8 4 8 4 7 10 15 19 20 21
8 6 3 4 5 3 3 7 8 8 5 6 8 4 1 1 12 16 17 9 7 3 2 2 3 4 8 15 18 9 8 7 5 6 9 5 8 8 6 7 8 14 19 21 22
Wind_Direction
357 355 353 349 346 343 338 336 333 331 326 323 321 320 320 313 308 299 251 247 245 234 259 294 299 306 308 239 194 113 74 256 239 120 129 149 168 225 216 151 177 209 144 133 117
358 353 351 347 343 339 336 335 333 331 326 321 319 318 321 319 317 271 276 268 248 216 207 304 312 5 339 262 198 113 134 242 185 140 156 178 173 180 157 145 139 137 137 123 120
357 353 349 344 339 338 336 334 332 328 323 319 316 316 322 328 326 253 317 275 205 205 226 279 292 34 294 64 250 167 192 242 276 118 142 153 175 206 134 149 153 155 118 120 116
356 352 349 344 340 337 335 331 330 326 321 318 311 313 321 350 294 286 324 185 187 195 226 233 150 167 255 254 239 254 242 227 264 118 128 162 143 153 154 160 151 129 129 128 124
356 353 348 345 340 336 333 329 328 324 319 315 304 309 52 21 251 256 286 182 178 196 205 189 167 170 226 228 9 181 263 274 259 159 143 138 145 137 188 134 127 136 130 130 135
356 352 348 344 340 335 331 327 325 322 315 309 298 237 135 264 267 290 222 181 181 186 200 174 206 187 279 262 149 248 271 266 146 138 143 142 154 137 200 157 144 142 137 133 132
355 351 348 345 340 335 330 324 323 318 308 300 281 150 244 239 222 158 204 230 189 195 187 217 228 89 337 321 246 250 280 309 144 137 132 116 152 198 165 175 153 148 139 135 127
353 351 348 344 340 333 328 324 322 311 297 305 150 137 248 261 276 255 252 251 228 216 233 249 250 230 172 232 357 343 66 233 274 140 169 163 182 172 173 173 156 145 122 113 116
351 348 346 344 340 334 328 328 324 293 16 120 126 175 266 305 248 239 213 214 229 228 242 264 246 206 356 60 0 8 249 206 292 180 157 192 118 175 179 163 151 135 128 117 107
349 345 343 343 340 334 330 338 31 108 97 101 252 354 270 263 259 235 219 212 184 229 316 267 50 33 10 79 230 250 312 298 242 280 152 172 171 174 174 161 159 141 137 133 126
348 344 342 340 340 334 337 11 8 6 217 219 213 234 280 258 325 250 219 192 160 103 178 273 104 238 241 205 228 237 227 250 270 257 185 194 160 179 172 163 161 143 139 133 129
349 345 341 338 338 335 1 7 273 293 295 231 244 231 247 282 305 291 223 164 132 204 206 354 224 233 238 251 237 256 263 277 283 265 186 167 175 174 176 178 170 152 150 144 141
348 344 342 337 341 29 319 298 345 349 278 285 221 235 219 184 227 256 181 177 179 207 218 196 242 228 222 254 257 257 233 255 235 338 68 96 50 169 193 149 158 146 123 140 156
347 344 343 338 5 335 309 339 340 346 16 281 237 253 156 149 277 216 201 164 189 205 237 225 254 245 243 242 216 246 226 237 229 126 207 131 225 211 158 116 159 160 166 177 168
345 344 339 332 305 305 320 338 335 50 3 300 264 153 140 154 191 210 181 127 181 205 150 246 275 270 251 242 247 251 249 217 155 176 118 134 109 283 143 169 178 180 178 180 167
342 344 331 322 292 318 339 328 345 43 272 330 30 7 20 274 277 4 134 77 172 199 213 239 249 199 243 275 230 247 233 39 70 112 128 227 135 243 188 210 159 179 190 164 161
340 342 316 275 271 326 337 10 43 123 324 360 354 349 307 260 259 224 221 210 189 174 254 281 271 262 236 280 311 129 66 323 335 13 209 225 95 226 211 208 197 186 158 166 162
339 345 313 277 335 333 359 53 107 277 277 342 350 330 23 14 338 292 210 217 234 149 168 209 292 245 250 192 227 218 156 159 210 211 237 262 161 239 221 109 86 152 170 154 159
341 353 341 103 104 340 67 62 209 259 336 332 332 311 326 345 330 17 25 255 261 178 205 204 257 271 241 275 159 248 151 194 148 230 78 209 164 328 139 133 119 146 151 163 170
339 337 299 155 178 73 71 216 251 280 307 317 324 316 317 333 327 1 313 270 327 332 224 229 257 258 270 272 290 189 185 83 357 170 224 311 145 216 214 168 169 163 168 174 172
4 19 194 153 146 51 147 232 287 307 350 319 323 297 302 358 265 289 257 307 11 2 20 349 234 260 131 185 235 300 179 78 126 137 176 177 260 211 197 204 171 181 175 173 174
359 13 83 344 32 21 68 295 301 354 345 28 348 332 43 309 293 279 254 284 2 124 328 17 250 239 249 231 218 170 218 155 148 232 136 151 262 225 197 192 172 180 176 179 177
355 274 358 12 53 345 326 303 325 343 338 5 308 49 30 324 344 332 352 3 11 14 13 325 327 319 283 321 42 189 186 144 110 70 185 144 247 252 139 140 171 165 173 176 171
34 3 332 27 95 51 347 298 322 306 305 71 33 82 346 8 132 309 339 3 344 284 358 30 281 215 265 242 192 198 136 139 119 122 177 207 179 184 186 165 176 173 171 175 171
32 348 59 326 335 329 242 295 324 1 2 23 58 69 48 328 325 342 330 327 335 54 31 326 268 320 308 269 202 205 202 167 155 162 151 198 195 217 202 165 177 176 165 165 165
61 35 343 286 297 338 15 348 2 354 352 348 334 295 191 200 212 298 267 153 246 324 356 356 307 336 315 314 226 201 205 177 156 141 131 142 188 186 210 115 136 175 166 170 170
2 347 106 283 330 2 37 345 342 345 308 344 328 290 225 343 300 274 257 250 230 186 250 245 131 18 296 326 304 238 191 187 168 178 145 152 209 162 170 152 154 171 178 171 174